Ronnskar, Sweden

9:57 PM CEST on May 22, 2015 (GMT +0200)
Ojebyn | | Change Station
CLOSE
Current Station
Personal Weather Station
Location: Norrbottens Län, NORRBOTTENS LäN
Elevation: 20 ft
Nearby Weather Stations

Elev 20 ft 65.35 °N, 21.41 °E | Updated 16 seconds ago

Mostly Cloudy
Mostly Cloudy
46.9 °F
Feels Like 45 °F
N
4.0
Wind Variable Wind from SE
Gusts 4.0 mph

Today
High -- | Low -- °F
--% Chance of Precip.
Yesterday
High -- | Low -- °F
Precip. -- in
2:45 AM 10:17 PM
Waxing Crescent, 23% visible
Pressure 29.59 in
Visibility 6.2 miles
Clouds Mostly Cloudy 1200 ft
Windchill 45 °F
Dew Point 43 °F
Humidity 85%
Rainfall 0.00 in
Snow Depth Not available.
UV 0 out of 12
Pollen Not available.
Air Quality Not available.
Flu Activity Not available.
METAR ESNS 221950Z 16008KT 9999 BKN012 08/06 Q1002

More Conditions Fewer Conditions

Pressure 29.59 in
Visibility 6.2 miles
Clouds Mostly Cloudy 1200 ft
Windchill 45 °F
Dew Point 43 °F
Humidity 85%
Rainfall 0.00 in
Snow Depth Not available.
UV 0 out of 12
Pollen Not available.
Air Quality Not available.
Flu Activity Not available.
METAR ESNS 221950Z 16008KT 9999 BKN012 08/06 Q1002

More Conditions Fewer Conditions

10-Day Weather Forecast

Almanac

Astronomy

May. 22, 2015 Rise Set
Actual Time
Civil Twilight
Nautical Twilight
Astronomical Twilight
Moon
Length of Visible Light
Length of Day
Tomorrow will be .
, % of the Moon is Illuminated

Today's Extremes

Country Highs Country Lows

Community

WunderPhotos

Upload Photos

1,823,279 photos uploaded!

WunderBlogs® & News

Nearby

Air Quality

  Air Quality AQ Index Pollutant
Not available.

Snow Depth

Station Depth Elevation

Earthquake Activity

City Distance Mag. Time & Date
Minimum magnitude displayed is 2.5.

Coastal Water Temperatures

Place Temperature

Stations

Nearby Weather Stations

Station Location Temp. Windchill Dew Point Humidity Wind Precip. Elev Updated Type